This is the latest recevied weather packets stored in our database for station/object KE0LFX. If no packets are shown the sender has not sent any weather packets the latest 10 day(s).
| Time | Temp. | Humidity | Pressure | Rain* | Wind** | Luminosity | Snow |
|---|---|---|---|---|---|---|---|
| 1777400787 | 15° C | 53% | 1020.6 hPa | 0 mm | - | 522 W/m² | - |
| 1777400484 | 15° C | 57% | 1020.7 hPa | 0 mm | - | 716 W/m² | - |
| 1777400180 | 14.44° C | 56% | 1020.5 hPa | 0 mm | - | 568 W/m² | - |
| 1777399877 | 14.44° C | 57% | 1020.6 hPa | 0 mm | - | 313 W/m² | - |
| 1777399574 | 14.44° C | 57% | 1020.8 hPa | 0 mm | - | 441 W/m² | - |
| 1777399271 | 14.44° C | 58% | 1020.8 hPa | 0 mm | - | 335 W/m² | - |
| 1777398969 | 15° C | 55% | 1020.6 hPa | 0 mm | - | 226 W/m² | - |
| 1777398665 | 14.44° C | 56% | 1020.7 hPa | 0 mm | - | 176 W/m² | - |
| 1777398362 | 13.89° C | 60% | 1020.8 hPa | 0 mm | - | 130 W/m² | - |
| 1777398059 | 13.89° C | 58% | 1020.6 hPa | 0 mm | - | 330 W/m² | - |
| 1777397756 | 14.44° C | 60% | 1021 hPa | 0 mm | - | 154 W/m² | - |
| 1777397451 | 13.89° C | 59% | 1020.6 hPa | 0 mm | - | 390 W/m² | - |
| 1777397148 | 13.33° C | 60% | 1020.8 hPa | 0 mm | - | 108 W/m² | - |
| 1777396845 | 13.89° C | 62% | 1020.9 hPa | 0 mm | - | 146 W/m² | - |
| 1777396541 | 13.33° C | 62% | 1020.7 hPa | 0 mm | - | 110 W/m² | - |
| 1777396238 | 12.78° C | 63% | 1020.9 hPa | 0 mm | - | 175 W/m² | - |
| 1777395934 | 13.89° C | 60% | 1020.8 hPa | 0 mm | - | 235 W/m² | - |
| 1777395629 | 13.89° C | 63% | 1020.8 hPa | 0 mm | - | 596 W/m² | - |
| 1777395326 | 12.78° C | 63% | 1020.7 hPa | 0 mm | - | 211 W/m² | - |
| 1777395024 | 13.33° C | 63% | 1021 hPa | 0 mm | - | 127 W/m² | - |
| 1777394720 | 12.78° C | 64% | 1021 hPa | 0 mm | - | 167 W/m² | - |
| 1777394416 | 12.78° C | 64% | 1020.8 hPa | 0 mm | - | 175 W/m² | - |
| 1777394113 | 12.78° C | 64% | 1021.1 hPa | 0 mm | - | 66 W/m² | - |
| 1777393809 | 12.78° C | 67% | 1021.1 hPa | 0 mm | - | 122 W/m² | - |
| 1777393508 | 12.22° C | 68% | 1021 hPa | 0 mm | - | 189 W/m² | - |
* Rain latest hour (hover to see other rain measurements)
** Current wind speed in m/s (hover to see current wind gust speed)